Location: Mahannah Oil Field
(37.4664°N, 96.6003°W)
Time: 10:39:47
(UTC+00:00)

Vanguard 2 - Pass Details

Date: 29 January 2021
Orbit: 552 x 2938 km, 32.9° (Epoch: 08 March)

Event Time Altitude Azimuth Distance (km) Brightness Sun altitude
Rises 02:01:23 0° 265° (W) 2,821 11.8 -26.8°
Reaches altitude 10° 02:03:48 10° 249° (WSW) 2,049 10.6 -27.3°
Maximum altitude 02:07:26 23° 197° (SSW) 1,615 9.3 -28.0°
Enters shadow 02:08:46 21° 177° (S) 1,798 9.3 -28.3°
